Location: *
(45.6667°N, 9.4500°E)
Time: 02:12:07
(UTC+00:00)

Daily predictions for brighter satellites

Satellite Brightness Start Highest point End
(mag) Time Altitude Azimuth Time Altitude Azimuth Time Altitude Azimuth
Cosmos 1833 4.4 00:11:41 69° NNE 00:11:41 69° NNE 00:16:43 10° NNE
Cosmos 2333 Rocket 2.8 00:10:07 10° NNW 00:15:37 50° ENE 00:16:17 47° E
Resurs 1-4 Rocket 3.5 00:15:56 10° NE 00:20:15 27° E 00:20:15 27° E
Meteor 1-22 Rocket 4.4 00:21:29 66° NNW 00:21:29 66° NNW 00:26:38 10° N
Cosmos 2322 Rocket 4.0 00:21:14 10° NW 00:23:29 20° WNW 00:23:29 20° WNW
Nadezhda 3 Rocket 4.0 00:32:05 67° WNW 00:32:05 67° WNW 00:38:07 10° N
USA 267 3.1 00:31:19 57° SE 00:32:50 89° SW 00:39:25 10° NW
Cosmos 967 Rocket 4.3 00:33:40 83° WNW 00:33:43 84° WNW 00:40:07 10° NNE
SeaSat 1 3.5 00:31:40 10° NE 00:35:29 37° E 00:35:29 37° E
NOSS 3-3 (C) 4.2 00:47:23 55° ESE 00:47:24 55° ESE 00:53:47 10° NE
NOSS 3-3 (A) 4.2 00:47:24 56° ESE 00:47:25 56° ESE 00:53:48 10° NE
CZ-2D R/B 2.7 00:44:32 10° NNE 00:49:51 49° E 00:50:04 48° ESE
H-2A R/B 2.9 00:51:25 47° NNE 00:51:25 47° NNE 00:54:42 10° N
CZ-4B R/B 3.9 00:49:10 10° N 00:53:03 52° NNW 00:53:03 52° NNW
Cosmos 1190 Rocket 4.2 00:49:56 10° NNW 00:55:16 66° ENE 00:55:37 64° E
Cosmos 2056 Rocket 3.9 00:55:58 54° ESE 00:55:58 54° ESE 01:01:11 10° NNE
CZ-4C R/B 3.9 00:59:52 20° WNW 01:02:19 27° NNW 01:07:39 10° NNE
Cosmos 1726 4.1 01:04:27 25° ENE 01:04:27 25° ENE 01:06:58 10° NNE
Cosmos 1271 Rocket 4.5 01:03:11 10° NNE 01:06:32 28° ENE 01:06:36 28° ENE
COSMOS 2455 2.7 01:01:01 10° NW 01:07:05 80° WSW 01:07:23 77° SSW
COSMOS 2428 2.8 01:01:29 10° NNW 01:06:33 63° WNW 01:06:33 63° WNW
Cosmos 2227 Rocket 3.5 01:06:51 27° ESE 01:07:56 29° ESE 01:12:45 10° NE
ADEOS II 3.8 01:03:54 10° NE 01:08:06 24° E 01:10:00 20° ESE
Cosmos 614 Rocket 3.9 01:06:48 10° NNW 01:11:55 85° NW 01:11:55 85° NW
MOZ.5/SAFIR/RUBIN 5/SL-8 4.0 01:13:54 67° NW 01:13:54 67° NW 01:18:06 10° NNW
Meteor 1-16 Rocket 4.5 01:13:05 54° SE 01:14:05 63° E 01:19:53 10° NNE
NPP 3.6 01:08:41 10° NNE 01:14:06 76° ESE 01:14:32 71° SSE
Cosmos 1605 Rocket 3.9 01:08:23 10° NNW 01:14:44 76° W 01:15:36 65° SSW
Cosmos 1624 Rocket 3.9 01:14:41 79° SE 01:14:46 80° ESE 01:20:02 10° NNE
Lacrosse 4 Rocket 3.9 01:12:56 10° NW 01:13:22 12° NW 01:13:22 12° NW
Cosmos 1606 Rocket 4.2 01:17:50 50° NNW 01:17:50 50° NNW 01:21:21 10° N
Genesis I 4.3 01:13:30 10° NNW 01:17:18 42° NE 01:17:39 41° ENE
Cosmos 2360 Rocket 4.2 01:13:34 10° NW 01:15:05 15° WNW 01:15:05 15° WNW
Cosmos 1953 3.5 01:21:54 37° NNW 01:21:54 37° NNW 01:24:34 10° N
CZ-4C R/B 4.3 01:21:47 41° NNE 01:21:47 41° NNE 01:24:27 10° N
ARIANE 5 R/B 3.8 01:18:08 10° NNE 01:22:53 34° E 01:24:37 27° SE
ATLAS 2AS CENTAUR R/B 3.1 01:16:20 10° NW 01:24:07 71° NE 01:31:15 10° SE
Cosmos 2297 Rocket 3.0 01:23:10 36° SE 01:24:26 41° ESE 01:29:43 10° NE
NOSS 0 Rocket 3.8 01:19:17 10° NNW 01:25:29 85° WSW 01:27:26 47° SSE
Cosmos 2228 3.6 01:26:20 49° NNW 01:26:20 49° NNW 01:29:45 10° N
ERBS 4.1 01:27:15 32° NNE 01:27:15 32° NNE 01:29:16 10° NE
Cosmos 1703 4.0 01:22:29 10° N 01:26:01 51° ENE 01:26:01 51° ENE
Cosmos 2219 Rocket 2.6 01:21:35 10° NW 01:26:01 45° WNW 01:26:01 45° WNW
IRS-1D 3.7 01:23:02 10° NNE 01:28:10 64° ESE 01:29:03 55° SSE
Cosmos 1023 Rocket 4.3 01:26:06 10° NNW 01:31:23 83° WSW 01:31:52 73° S
IRS P6 4.5 01:27:31 10° NNE 01:32:55 87° ESE 01:33:41 66° S
Cosmos 1371 Rocket 4.0 01:34:49 59° W 01:35:13 61° WNW 01:40:26 10° NNE
Cosmos 2058 Rocket 3.1 01:35:50 72° NW 01:35:50 72° NW 01:40:09 10° N
Cosmos 1420 Rocket 4.5 01:36:06 45° SSE 01:37:13 54° ESE 01:42:21 10° NNE
CBERS-1 3.9 01:34:04 10° NNE 01:39:13 87° WNW 01:39:56 67° SSW
SL-16 R/B 2.6 01:39:34 49° WSW 01:40:07 51° W 01:46:07 10° NNW
USA 215 4.2 01:34:58 10° NE 01:41:04 43° NNW 01:45:42 17° W
Meteor 1-11 4.2 01:40:50 10° N 01:46:29 81° E 01:48:57 35° SSE
Cosmos 2237 Rocket 2.1 01:40:59 10° NNW 01:46:42 84° WSW 01:49:24 33° SSE
Cosmos 1980 3.5 01:41:57 10° NNW 01:47:39 77° WSW 01:49:47 40° SSE
SL-16 R/B 3.2 01:47:40 10° NNW 01:53:09 47° ENE 01:58:35 10° SE
IRS-P3 4.0 01:47:50 10° NNE 01:53:13 82° WNW 01:54:34 52° SSW
Cosmos 1452 Rocket 3.7 01:51:59 43° SSE 01:53:34 63° ESE 01:58:46 10° NNE
SL-08 R/B 3.3 01:52:36 56° S 01:53:35 76° WSW 01:58:34 10° NNW
Cosmos 407 Rocket 4.5 01:54:26 10° NW 01:58:02 30° WNW 01:58:02 30° WNW
Cosmos 2333 Rocket 3.4 01:54:55 10° NW 01:58:14 25° W 01:58:14 25° W
Cosmos 1076 Rocket 4.4 01:55:36 10° N 01:59:43 46° ENE 02:02:28 19° SE
Resurs 1-4 Rocket 2.6 01:55:25 10° N 02:00:22 43° WNW 02:01:20 39° W
Cosmos 2061 Rocket 4.2 01:54:23 10° N 02:00:49 73° E 02:06:28 14° SSE
Cosmos 1954 Rocket 4.0 01:59:24 10° NNW 02:04:37 58° WSW 02:05:48 46° SSW
Cosmos 1242 Rocket 3.2 02:02:12 10° N 02:05:35 50° ENE 02:06:38 35° SE
deb Chang Zheng 4 3.6 02:01:46 10° N 02:06:02 63° WNW 02:06:34 57° WSW
Cosmos 2219 3.4 02:05:21 42° WSW 02:07:06 60° WNW 02:12:49 10° NNE
Cosmos 1727 Rocket 4.4 02:07:16 37° WSW 02:09:11 48° WNW 02:15:20 10° N
Cosmos 2082 4.1 02:06:35 30° S 02:09:17 58° ESE 02:14:54 10° NNE
Cosmos 1140 Rocket 4.0 02:06:14 10° NW 02:11:04 39° WSW 02:11:04 39° WSW
Cosmos 1908 3.2 02:12:03 60° W 02:12:06 60° W 02:15:54 10° N
Cosmos 676 Rocket 4.3 02:08:08 10° NNW 02:13:13 45° WSW 02:14:02 42° SW
SeaSat 1 3.5 02:09:19 10° NNE 02:13:45 34° NW 02:15:16 28° W
USA 267 4.4 02:18:37 23° W 02:18:37 23° W 02:21:48 10° WNW
Cosmos 2173 Rocket 4.0 02:13:09 10° NNW 02:19:18 64° W 02:22:55 26° SSW
CZ-3 Stage 3 4.3 02:20:42 27° SW 02:26:31 46° SSE 03:15:00 10° ESE
H-2A R/B 4.3 02:28:32 12° WNW 02:28:32 12° WNW 02:29:09 10° WNW
NOSS 3-4 (A) 3.8 02:22:35 10° NW 02:29:37 78° SW 02:37:18 10° SSE
CZ-2D R/B 3.4 02:25:06 10° N 02:29:37 27° WNW 02:31:23 23° W
NOSS 3-4 (C) 3.8 02:22:40 10° NW 02:29:43 78° SW 02:37:24 10° SSE
CZ-4B R/B 1.4 02:31:31 52° W 02:31:31 52° W 02:34:32 10° NNW
Landsat 5 4.4 02:34:31 28° W 02:34:31 28° W 02:37:24 10° NW
Intercosmos 25 Rocket 3.2 02:34:40 26° S 02:36:24 65° E 02:39:32 10° NNE
Cosmos 1726 3.7 02:38:59 21° WNW 02:39:00 21° WNW 02:41:55 10° NNW
Cosmos 1461 2.8 02:37:32 36° SSW 02:39:08 79° SE 02:43:08 10° NE
Cosmos 1850 Rocket 3.9 02:34:22 10° NNW 02:39:34 67° WSW 02:44:43 10° S
OE (NEXTSAT) 4.2 02:41:02 44° WSW 02:42:01 80° SSE 02:45:31 10° E
Cosmos 1271 Rocket 4.2 02:39:25 10° NW 02:41:43 20° WNW 02:41:43 20° WNW
Cosmos 1300 2.6 02:41:29 31° SSW 02:43:14 82° W 02:47:05 10° N
Cosmos 1689 Rocket 2.1 02:44:48 48° SW 02:45:15 55° WSW 02:48:15 10° NNW
Cosmos 2016 Rocket 4.1 02:41:33 10° NNW 02:47:34 56° W 02:52:50 13° SSW
ADEOS II 2.4 02:42:59 10° N 02:48:04 49° WNW 02:50:56 24° SW
Cosmos 1741 Rocket 4.0 02:43:21 10° NNW 02:48:34 59° WSW 02:53:47 10° S
Cosmos 1802 Rocket 4.3 02:43:02 10° NNW 02:48:51 46° W 02:53:10 18° SSW
Cosmos 1812 Rocket 4.1 02:47:26 29° SW 02:49:06 42° WNW 02:53:16 10° N
CZ-2D R/B 3.7 02:45:58 10° N 02:50:17 55° WNW 02:52:31 26° SW
Cosmos 2227 Rocket 2.7 02:48:40 24° WSW 02:51:45 46° WNW 02:57:13 10° NNE
Spot 4 Rocket 4.4 02:46:54 10° N 02:51:53 50° WNW 02:54:52 23° SW
Meteor 1-28 Rocket 3.0 02:52:07 10° S 02:55:49 78° W 02:59:32 10° NNW
ADEOS 4.0 02:51:38 10° NNE 02:56:50 62° ESE 03:01:59 10° S
Cosmos 2233 Rocket 3.9 02:53:03 10° N 02:59:15 88° W 03:05:23 10° S
ARIANE 5 R/B 3.4 02:57:15 10° N 03:01:58 35° WNW 03:04:57 19° WSW
Cosmos 2123 Rocket 4.1 02:59:20 17° SSW 03:04:08 56° WNW 03:10:19 10° N
Cosmos 2297 Rocket 3.1 03:04:59 18° WSW 03:08:32 35° NW 03:13:43 10° NNE
ATLAS 2AS CENTAUR R/B 3.5 03:08:10 10° NW 03:14:28 30° WSW 03:20:21 10° SSW
Meteor 2-1 Rocket 4.4 03:10:44 11° SSW 03:16:30 65° WNW 03:22:20 10° N
CZ-2C R/B 4.2 03:13:19 10° NE 03:17:18 29° E 03:21:17 10° SSE
Cosmos 2058 3.5 03:14:31 10° NNW 03:18:18 36° W 03:22:02 10° SSW
Cosmos 1892 2.6 03:20:03 10° NNW 03:23:53 75° W 03:27:43 10° S
Cosmos-2242 3.3 03:21:24 12° SSW 03:25:12 49° WNW 03:29:23 10° N
Cosmos 1943 4.1 03:20:28 10° NNW 03:26:06 55° ENE 03:31:40 10° SE
Cosmos 1603 3.9 03:22:36 10° NNW 03:28:15 76° ENE 03:33:53 10° SSE
CZ-2C R/B 4.1 03:26:17 10° N 03:29:39 26° WNW 03:32:29 13° WSW
Cosmos 2237 Rocket 3.9 03:27:31 10° WNW 03:29:50 13° W 03:31:06 12° WSW
IDEFIX/ARIANE 42P 2.6 03:27:35 10° NNE 03:32:50 85° WNW 03:38:04 10° SSW
BREEZE-M DEB (TANK) 3.1 03:31:31 10° WNW 03:34:00 48° N 03:40:00 10° E
Cosmos 1331 Rocket 4.2 03:29:00 10° SW 03:34:13 61° WNW 03:39:30 10° NNE
Cosmos 1110 Rocket 4.3 03:29:52 11° SW 03:34:52 54° WNW 03:40:04 10° NNE
SL-16 R/B 3.0 03:32:12 10° NW 03:37:01 29° WSW 03:41:50 10° SSW
Cosmos 1408 Rocket 3.6 03:33:00 10° NNW 03:37:26 65° W 03:41:51 10° S
Meteor 2-10 Rocket 4.4 03:33:54 10° S 03:39:15 57° E 03:44:50 10° NNE
Cosmos 1408 2.7 03:36:00 10° N 03:39:36 77° E 03:43:10 10° SSE
Cosmos 1238 Rocket 2.0 03:36:56 10° NNW 03:39:52 76° W 03:42:56 10° S
H-2A R/B 2.6 03:36:11 10° N 03:40:29 64° WNW 03:44:35 10° SSW
Cosmos 1743 Rocket 3.8 03:39:37 10° N 03:44:05 76° E 03:48:32 10° SSE
